QPF
0.00 0.00 0.00 0.00 0.00 0.00 0.00 0.00 0.00 0.00 0.00 0.00 0.00 0.00 0.00 0.00 0.00 0.00 0.00 0.00 0.00 0.00 0.00 0.00 0.00 0.00 0.00 0.00 0.00 0.00 0.00 0.00 0.00 0.00 0.00 0.00 0.00 0.00 0.00 0.00 0.00 0.00 0.00
0.00 0.00 0.00 0.00 0.00 0.00 0.00 0.00 0.00 0.00 0.00 0.00 0.00 0.00 0.00 0.00 0.00 0.00 0.00 0.00 0.00 0.00 0.00 0.00 0.00 0.00 0.00 0.00 0.00 0.00 0.00 0.00 0.00 0.00 0.00 0.00 0.00 0.00 0.00 0.00 0.00 0.00 0.00
0.00 0.00 0.00 0.00 0.00 0.00 0.00 0.00 0.00 0.00 0.00 0.00 0.00 0.00 0.00 0.00 0.00 0.00 0.00 0.00 0.00 0.00 0.00 0.00 0.00 0.00 0.00 0.00 0.00 0.00 0.00 0.00 0.00 0.00 0.00 0.00 0.00 0.00 0.00 0.00 0.00 0.00 0.00
0.00 0.00 0.00 0.00 0.00 0.00 0.00 0.00 0.00 0.00 0.00 0.00 0.00 0.00 0.00 0.00 0.00 0.00 0.00 0.00 0.00 0.00 0.00 0.00 0.00 0.00 0.00 0.00 0.00 0.00 0.00 0.00 0.00 0.00 0.00 0.00 0.00 0.00 0.00 0.00 0.00 0.00 0.00
0.00 0.00 0.00 0.00 0.00 0.00 0.00 0.00 0.00 0.00 0.00 0.00 0.00 0.00 0.00 0.00 0.00 0.00 0.00 0.00 0.00 0.00 0.00 0.00 0.00 0.00 0.00 0.00 0.00 0.00 0.00 0.00 0.00 0.00 0.00 0.00 0.00 0.00 0.00 0.00 0.00 0.00 0.00
0.00 0.00 0.00 0.00 0.00 0.00 0.00 0.00 0.00 0.00 0.00 0.00 0.00 0.00 0.00 0.00 0.00 0.00 0.00 0.00 0.00 0.00 0.00 0.00 0.00 0.00 0.00 0.00 0.00 0.00 0.00 0.00 0.00 0.00 0.00 0.00 0.00 0.00 0.00 0.00 0.00 0.00 0.00
0.00 0.00 0.00 0.00 0.00 0.00 0.00 0.00 0.00 0.00 0.00 0.00 0.00 0.00 0.00 0.00 0.00 0.00 0.00 0.00 0.00 0.00 0.00 0.00 0.00 0.00 0.00 0.00 0.00 0.00 0.00 0.00 0.00 0.00 0.00 0.00 0.00 0.00 0.00 0.00 0.00 0.00 0.00
0.00 0.00 0.00 0.00 0.00 0.00 0.00 0.00 0.00 0.00 0.00 0.00 0.00 0.00 0.00 0.00 0.00 0.00 0.00 0.00 0.00 0.00 0.00 0.00 0.00 0.00 0.00 0.00 0.00 0.00 0.00 0.00 0.00 0.00 0.00 0.00 0.00 0.00 0.00 0.00 0.00 0.00 0.00
0.00 0.00 0.00 0.00 0.00 0.00 0.00 0.00 0.00 0.00 0.00 0.00 0.00 0.00 0.00 0.00 0.00 0.00 0.00 0.00 0.00 0.00 0.00 0.00 0.00 0.00 0.00 0.00 0.00 0.00 0.00 0.00 0.00 0.00 0.00 0.00 0.00 0.00 0.00 0.00 0.00 0.00 0.00
0.00 0.00 0.00 0.00 0.00 0.00 0.00 0.00 0.00 0.00 0.00 0.00 0.00 0.00 0.00 0.00 0.00 0.00 0.00 0.00 0.00 0.00 0.00 0.00 0.00 0.00 0.00 0.00 0.00 0.00 0.00 0.00 0.00 0.00 0.00 0.00 0.00 0.00 0.00 0.00 0.00 0.00 0.00
0.00 0.00 0.00 0.00 0.00 0.00 0.00 0.00 0.00 0.00 0.00 0.00 0.00 0.00 0.00 0.00 0.00 0.00 0.00 0.00 0.00 0.00 0.00 0.00 0.00 0.00 0.00 0.00 0.00 0.00 0.00 0.00 0.00 0.00 0.00 0.00 0.00 0.00 0.00 0.00 0.00 0.00 0.00
0.00 0.00 0.00 0.00 0.00 0.00 0.00 0.00 0.00 0.00 0.00 0.00 0.00 0.00 0.00 0.00 0.00 0.00 0.00 0.00 0.00 0.00 0.00 0.00 0.00 0.00 0.00 0.00 0.00 0.00 0.00 0.00 0.00 0.00 0.00 0.00 0.00 0.00 0.00 0.00 0.00 0.00 0.00
0.00 0.00 0.00 0.00 0.00 0.00 0.00 0.00 0.00 0.00 0.00 0.00 0.00 0.00 0.00 0.00 0.00 0.00 0.00 0.00 0.00 0.00 0.00 0.00 0.00 0.00 0.00 0.00 0.00 0.00 0.00 0.00 0.00 0.00 0.00 0.00 0.00 0.00 0.00 0.00 0.00 0.00 0.00
0.00 0.00 0.00 0.00 0.00 0.00 0.00 0.00 0.00 0.00 0.00 0.00 0.00 0.00 0.00 0.00 0.00 0.00 0.00 0.00 0.00 0.00 0.00 0.00 0.00 0.00 0.00 0.00 0.00 0.00 0.00 0.00 0.00 0.00 0.00 0.00 0.00 0.00 0.00 0.00 0.00 0.00 0.00
0.00 0.00 0.00 0.00 0.00 0.00 0.00 0.00 0.00 0.00 0.00 0.00 0.00 0.00 0.00 0.00 0.00 0.00 0.00 0.00 0.00 0.00 0.00 0.00 0.00 0.00 0.00 0.00 0.00 0.00 0.00 0.00 0.00 0.00 0.00 0.00 0.00 0.00 0.00 0.00 0.00 0.00 0.00
0.00 0.00 0.00 0.00 0.00 0.00 0.00 0.00 0.00 0.00 0.00 0.00 0.00 0.00 0.00 0.00 0.00 0.00 0.00 0.00 0.00 0.00 0.00 0.00 0.00 0.00 0.00 0.00 0.00 0.00 0.00 0.00 0.00 0.00 0.00 0.00 0.00 0.00 0.00 0.00 0.00 0.00 0.00
0.00 0.00 0.00 0.00 0.00 0.00 0.00 0.00 0.00 0.00 0.00 0.00 0.00 0.00 0.00 0.00 0.00 0.00 0.00 0.00 0.00 0.00 0.00 0.00 0.00 0.00 0.00 0.00 0.00 0.00 0.00 0.00 0.00 0.00 0.00 0.00 0.00 0.00 0.00 0.00 0.00 0.00 0.00
0.00 0.00 0.00 0.00 0.00 0.00 0.00 0.00 0.00 0.00 0.00 0.00 0.00 0.00 0.00 0.00 0.00 0.00 0.00 0.00 0.00 0.00 0.00 0.00 0.00 0.00 0.00 0.00 0.00 0.00 0.00 0.00 0.00 0.00 0.00 0.00 0.00 0.00 0.00 0.00 0.00 0.00 0.00
0.00 0.00 0.00 0.00 0.00 0.00 0.00 0.00 0.00 0.00 0.00 0.00 0.00 0.00 0.00 0.00 0.00 0.00 0.00 0.00 0.00 0.00 0.00 0.00 0.00 0.00 0.00 0.00 0.00 0.00 0.00 0.00 0.00 0.00 0.00 0.00 0.00 0.00 0.00 0.00 0.00 0.00 0.00
0.00 0.00 0.00 0.00 0.00 0.00 0.00 0.00 0.00 0.00 0.00 0.00 0.00 0.00 0.00 0.00 0.00 0.00 0.00 0.00 0.00 0.00 0.00 0.00 0.00 0.00 0.00 0.00 0.00 0.00 0.00 0.00 0.00 0.00 0.00 0.00 0.00 0.00 0.00 0.00 0.00 0.00 0.00
0.00 0.00 0.00 0.00 0.00 0.00 0.00 0.00 0.00 0.00 0.00 0.00 0.00 0.00 0.00 0.00 0.00 0.00 0.00 0.00 0.00 0.00 0.00 0.00 0.00 0.00 0.00 0.00 0.00 0.00 0.00 0.00 0.00 0.00 0.00 0.00 0.00 0.00 0.00 0.00 0.00 0.00 0.00
0.00 0.00 0.00 0.00 0.00 0.00 0.00 0.00 0.00 0.00 0.00 0.00 0.00 0.00 0.00 0.00 0.00 0.00 0.00 0.00 0.00 0.00 0.00 0.00 0.00 0.00 0.00 0.00 0.00 0.00 0.00 0.00 0.00 0.00 0.00 0.00 0.00 0.00 0.00 0.00 0.00 0.00 0.00
0.00 0.00 0.00 0.00 0.00 0.00 0.00 0.00 0.00 0.00 0.00 0.00 0.00 0.00 0.00 0.00 0.00 0.00 0.00 0.00 0.00 0.00 0.00 0.00 0.00 0.00 0.00 0.00 0.00 0.00 0.00 0.00 0.00 0.00 0.00 0.00 0.00 0.00 0.00 0.00 0.00 0.00 0.00
0.00 0.00 0.00 0.00 0.00 0.00 0.00 0.00 0.00 0.00 0.00 0.00 0.00 0.00 0.00 0.00 0.00 0.00 0.00 0.00 0.00 0.00 0.00 0.00 0.00 0.00 0.00 0.00 0.00 0.00 0.00 0.00 0.00 0.00 0.00 0.00 0.00 0.00 0.00 0.00 0.00 0.00 0.00
0.00 0.00 0.00 0.00 0.00 0.00 0.00 0.00 0.00 0.00 0.00 0.00 0.00 0.00 0.00 0.00 0.00 0.00 0.00 0.00 0.00 0.00 0.00 0.00 0.00 0.00 0.00 0.00 0.00 0.00 0.00 0.00 0.00 0.00 0.00 0.00 0.00 0.00 0.00 0.00 0.00 0.00 0.00
0.00 0.00 0.00 0.00 0.00 0.00 0.00 0.00 0.00 0.00 0.00 0.00 0.00 0.00 0.00 0.00 0.00 0.00 0.00 0.00 0.00 0.00 0.00 0.00 0.00 0.00 0.00 0.00 0.00 0.00 0.00 0.00 0.00 0.00 0.00 0.00 0.00 0.00 0.00 0.00 0.00 0.00 0.00
MSLP
1029.71 1029.92 1030.43 1030.65 1030.79 1030.93 1031.12 1031.23 1031.44 1031.54 1031.70 1031.88 1032.01 1032.09 1032.29 1032.26 1031.95 1031.75 1031.88 1032.04 1031.78 1031.73 1031.67 1031.44 1031.52 1031.37 1031.33 1031.22 1031.15 1030.86 1030.78 1030.45 1029.66 1027.98 1027.59 1026.51 1025.72 1025.09 1024.39 1023.89 1023.46 1022.45 1021.60
1030.34 1030.80 1031.04 1031.24 1031.29 1031.47 1031.71 1031.84 1031.95 1032.06 1032.21 1032.37 1032.54 1032.57 1032.75 1033.06 1032.91 1032.60 1032.46 1032.42 1032.15 1032.00 1032.06 1032.10 1032.11 1031.73 1031.65 1031.51 1031.25 1030.86 1030.56 1030.56 1029.95 1028.55 1028.17 1026.77 1025.93 1024.97 1024.26 1023.42 1022.76 1022.20 1021.62
1030.84 1031.07 1031.40 1031.59 1031.81 1031.97 1032.27 1032.40 1032.52 1032.73 1032.77 1032.82 1032.76 1032.81 1033.04 1033.21 1033.34 1033.39 1033.03 1032.88 1032.71 1032.76 1032.61 1032.45 1032.57 1031.98 1031.71 1031.64 1031.15 1030.92 1030.74 1030.49 1030.11 1029.48 1028.15 1027.11 1026.16 1025.24 1023.96 1023.22 1022.55 1021.83 1021.12
1031.16 1031.65 1031.80 1032.00 1032.21 1032.54 1032.66 1032.72 1032.96 1032.96 1033.01 1033.13 1033.23 1033.26 1033.37 1033.44 1033.49 1033.59 1033.49 1033.41 1033.18 1032.86 1032.46 1032.69 1032.63 1032.57 1031.83 1031.88 1031.21 1031.27 1031.06 1030.36 1030.11 1029.53 1028.37 1027.15 1026.44 1025.48 1024.60 1023.00 1021.12 1021.36 1020.17
1031.52 1032.14 1032.18 1032.48 1032.80 1033.09 1033.07 1033.10 1033.06 1033.17 1033.34 1033.61 1033.71 1033.59 1033.57 1033.60 1033.50 1033.73 1034.12 1033.68 1033.17 1032.90 1032.83 1032.64 1032.56 1032.37 1032.00 1032.06 1031.45 1031.04 1030.97 1030.43 1030.15 1029.26 1028.29 1027.46 1026.61 1025.56 1024.73 1023.60 1022.41 1020.66 1019.95
1031.98 1032.08 1032.29 1032.85 1033.10 1033.21 1033.25 1033.50 1033.47 1033.65 1033.89 1033.79 1033.87 1033.96 1033.91 1033.52 1033.43 1033.62 1034.11 1033.67 1033.63 1033.39 1032.86 1032.62 1032.51 1032.22 1032.21 1031.86 1031.40 1030.81 1030.84 1030.41 1029.86 1029.12 1028.38 1027.64 1026.85 1026.11 1025.04 1024.27 1023.10 1021.38 1018.68
1031.80 1032.20 1032.49 1032.78 1033.27 1033.22 1033.44 1033.73 1033.93 1034.04 1034.03 1033.99 1034.15 1034.36 1034.22 1033.99 1033.56 1033.45 1033.44 1033.71 1033.40 1033.63 1033.44 1032.72 1032.57 1032.26 1032.17 1031.81 1031.07 1030.64 1030.61 1030.20 1029.77 1029.22 1028.41 1027.74 1026.76 1026.44 1025.43 1023.89 1023.28 1022.39 1020.41
1031.73 1032.30 1032.42 1033.11 1033.41 1033.41 1033.70 1033.94 1033.92 1034.14 1034.32 1034.26 1034.15 1034.01 1034.23 1033.82 1033.91 1033.84 1033.27 1033.14 1033.55 1033.62 1033.36 1032.90 1032.64 1032.22 1031.95 1031.26 1030.39 1030.20 1030.00 1029.78 1029.51 1028.88 1028.25 1027.64 1027.27 1026.33 1025.65 1024.63 1023.36 1022.24 1020.34
1031.98 1032.44 1032.80 1033.13 1033.27 1033.45 1033.80 1033.91 1034.18 1034.16 1034.16 1034.26 1034.20 1034.08 1033.64 1033.75 1034.12 1033.90 1033.17 1033.31 1033.07 1033.50 1033.13 1032.80 1032.39 1031.94 1031.55 1030.39 1029.97 1029.72 1029.41 1029.26 1028.81 1028.09 1027.95 1027.66 1027.00 1026.33 1025.65 1024.39 1023.48 1022.65 1020.69
1031.96 1032.29 1032.72 1033.05 1033.37 1033.67 1033.89 1034.09 1033.99 1034.39 1034.29 1034.18 1033.95 1033.87 1034.03 1033.72 1034.06 1033.69 1033.10 1033.04 1033.44 1033.35 1033.01 1032.47 1032.00 1031.52 1030.79 1030.06 1029.84 1029.50 1029.19 1028.74 1028.03 1027.87 1027.87 1027.41 1026.87 1026.11 1025.25 1024.78 1023.93 1022.86 1021.62
1031.98 1032.36 1032.78 1033.30 1033.49 1033.89 1033.79 1034.19 1033.94 1033.98 1034.36 1034.16 1034.08 1034.00 1033.63 1033.95 1034.07 1033.52 1033.16 1033.34 1033.32 1032.89 1032.63 1032.12 1031.76 1031.19 1030.20 1029.92 1029.64 1029.72 1029.07 1027.89 1028.16 1028.14 1027.59 1026.85 1026.07 1025.40 1024.84 1024.36 1023.92 1023.13 1021.51
1032.01 1032.47 1033.18 1033.46 1033.56 1033.79 1033.94 1033.97 1033.95 1034.23 1034.42 1034.25 1034.05 1034.03 1034.20 1034.21 1034.03 1033.72 1033.39 1033.31 1032.81 1032.76 1032.33 1031.93 1031.39 1030.35 1030.16 1029.97 1029.94 1029.53 1028.73 1028.60 1028.91 1028.22 1027.42 1026.53 1025.55 1024.57 1024.06 1023.81 1023.08 1022.24 1021.26
1032.26 1033.05 1033.55 1033.56 1033.60 1033.71 1033.78 1033.97 1034.25 1034.35 1034.36 1034.44 1034.51 1034.64 1034.57 1034.44 1034.34 1033.83 1033.56 1033.02 1032.71 1032.35 1031.92 1031.09 1030.43 1030.47 1030.46 1030.49 1030.19 1029.52 1029.30 1029.55 1029.00 1028.26 1027.33 1026.36 1025.68 1024.78 1023.86 1022.84 1022.05 1021.08 1019.88
1032.86 1033.21 1033.33 1033.58 1033.75 1033.83 1034.04 1034.17 1034.22 1034.35 1034.52 1034.60 1034.67 1034.67 1034.56 1034.29 1034.05 1033.80 1033.33 1032.84 1032.38 1031.76 1031.05 1031.33 1030.89 1030.87 1030.75 1030.44 1030.44 1030.05 1029.79 1029.51 1028.96 1028.21 1027.33 1026.46 1025.60 1024.76 1023.81 1022.98 1021.62 1020.32 1018.96
1032.84 1033.16 1033.35 1033.54 1033.78 1033.97 1033.97 1033.89 1033.92 1034.14 1034.23 1034.34 1034.24 1034.15 1034.13 1033.66 1033.39 1032.73 1032.31 1032.12 1031.69 1030.93 1030.93 1031.62 1031.71 1031.60 1031.24 1030.86 1030.45 1030.12 1029.73 1029.24 1028.67 1028.02 1027.26 1026.39 1025.47 1024.70 1023.75 1022.82 1021.85 1020.52 1019.35
1032.89 1033.09 1033.30 1033.57 1033.77 1033.92 1034.08 1034.10 1033.73 1033.46 1033.25 1033.02 1032.92 1032.95 1033.36 1032.86 1032.35 1032.17 1031.82 1031.57 1031.00 1031.05 1031.87 1032.82 1032.52 1032.22 1031.76 1031.21 1030.64 1030.00 1029.61 1029.09 1028.55 1027.89 1027.19 1026.38 1025.43 1024.57 1023.60 1022.62 1021.89 1020.80 1019.28
1032.74 1033.01 1033.26 1033.51 1033.82 1034.17 1034.31 1034.44 1034.35 1033.99 1033.58 1033.34 1033.14 1032.78 1032.67 1032.62 1032.33 1032.02 1031.84 1031.35 1031.95 1032.25 1033.31 1033.35 1033.00 1032.49 1031.90 1031.38 1030.82 1030.30 1029.62 1029.12 1028.49 1027.73 1026.95 1026.12 1025.39 1024.54 1023.62 1022.54 1021.59 1020.57 1019.11
1032.83 1032.97 1033.18 1033.41 1033.68 1034.03 1034.26 1034.36 1034.40 1034.46 1034.34 1034.11 1033.84 1033.58 1033.15 1032.68 1032.54 1032.21 1031.70 1032.33 1032.84 1032.91 1033.25 1033.51 1033.06 1032.49 1031.87 1031.33 1030.79 1030.20 1029.58 1028.86 1028.16 1027.46 1026.69 1026.00 1025.30 1024.51 1023.40 1022.48 1021.48 1020.45 1019.14
1032.88 1033.06 1033.19 1033.37 1033.56 1033.76 1034.04 1034.35 1034.56 1034.70 1034.62 1034.45 1034.32 1033.94 1033.98 1033.28 1032.74 1032.25 1032.30 1033.28 1033.48 1033.50 1033.23 1033.12 1032.73 1032.23 1031.66 1031.15 1030.64 1030.08 1029.49 1028.65 1027.94 1027.29 1026.44 1025.66 1025.03 1024.38 1023.28 1022.39 1021.36 1020.27 1019.16
1032.57 1032.75 1033.00 1033.28 1033.50 1033.80 1034.12 1034.42 1034.60 1034.76 1034.81 1034.71 1034.52 1034.41 1034.22 1034.14 1033.32 1033.02 1033.06 1033.21 1033.37 1033.34 1033.03 1032.68 1032.20 1031.72 1031.26 1030.80 1030.29 1029.75 1029.05 1028.29 1027.54 1026.85 1026.00 1025.29 1024.66 1024.04 1023.15 1022.27 1021.30 1020.12 1018.86
1032.38 1032.76 1033.02 1033.43 1033.61 1033.82 1034.14 1034.45 1034.64 1034.88 1034.72 1034.48 1034.22 1034.04 1033.76 1033.24 1033.46 1033.16 1032.96 1032.97 1033.05 1032.87 1032.61 1032.29 1031.83 1031.28 1030.80 1030.42 1029.92 1029.34 1028.66 1027.82 1027.07 1026.38 1025.51 1024.80 1024.22 1023.58 1022.86 1022.11 1021.13 1019.91 1018.73
1032.26 1032.59 1032.92 1033.23 1033.44 1033.76 1033.99 1034.21 1034.42 1034.53 1034.50 1034.38 1033.91 1033.60 1033.38 1033.42 1033.17 1033.03 1032.84 1032.69 1032.52 1032.43 1032.08 1031.85 1031.26 1030.72 1030.27 1029.89 1029.41 1028.88 1028.15 1027.24 1026.34 1025.69 1024.85 1024.21 1023.70 1023.06 1022.36 1021.53 1020.60 1019.49 1018.34
1032.12 1032.46 1032.80 1033.10 1033.31 1033.55 1033.85 1034.04 1034.21 1034.24 1034.10 1033.88 1033.66 1033.39 1033.14 1033.02 1032.75 1032.61 1032.44 1032.22 1032.09 1031.70 1031.19 1031.37 1031.01 1030.12 1029.47 1029.04 1028.62 1028.12 1027.44 1026.50 1025.67 1025.11 1024.39 1023.56 1022.86 1022.19 1021.53 1020.79 1019.98 1018.92 1017.88
1032.03 1032.36 1032.59 1032.86 1033.12 1033.44 1033.64 1033.79 1033.79 1033.67 1033.54 1033.37 1033.30 1033.01 1032.68 1032.41 1032.24 1032.08 1031.82 1031.68 1031.57 1031.14 1030.69 1030.41 1030.01 1029.49 1028.85 1028.24 1027.61 1027.03 1026.35 1025.43 1024.92 1024.22 1023.68 1022.73 1021.79 1021.00 1020.49 1019.89 1019.15 1018.22 1017.30
1031.92 1032.29 1032.51 1032.76 1032.98 1033.19 1033.35 1033.38 1033.36 1033.28 1033.22 1033.09 1032.80 1032.44 1032.10 1031.90 1031.70 1031.58 1031.44 1031.20 1030.95 1030.58 1030.00 1029.50 1029.09 1028.55 1028.06 1027.38 1026.66 1025.81 1025.00 1024.25 1023.74 1023.17 1022.44 1021.55 1020.48 1019.67 1019.25 1018.73 1018.09 1017.20 1016.41
1031.93 1032.14 1032.36 1032.63 1032.85 1033.02 1033.16 1033.19 1033.16 1033.05 1032.88 1032.57 1032.28 1031.94 1031.67 1031.43 1031.22 1030.96 1030.72 1030.66 1030.35 1029.80 1029.31 1028.74 1028.16 1027.74 1027.15 1026.39 1025.44 1024.55 1023.60 1022.82 1021.97 1020.76 1019.93 1019.06 1018.36 1017.73 1017.46 1017.19 1016.72 1016.32 1015.71
Thickness
5521 5517 5511 5506 5503 5499 5494 5489 5484 5478 5472 5466 5461 5456 5450 5446 5443 5440 5432 5425 5422 5416 5411 5407 5400 5395 5389 5383 5377 5373 5368 5365 5368 5379 5372 5373 5374 5374 5372 5368 5364 5366 5367
5507 5501 5497 5493 5489 5484 5478 5473 5468 5463 5458 5452 5446 5440 5434 5426 5423 5419 5414 5409 5405 5400 5393 5387 5378 5374 5370 5365 5361 5357 5353 5346 5344 5352 5348 5351 5351 5353 5353 5353 5350 5345 5344
5493 5489 5483 5479 5475 5470 5464 5459 5454 5448 5443 5437 5433 5427 5420 5414 5407 5401 5396 5391 5387 5379 5374 5369 5362 5358 5353 5347 5344 5340 5333 5328 5322 5319 5325 5325 5325 5325 5332 5330 5328 5327 5324
5480 5474 5471 5467 5463 5457 5452 5447 5440 5436 5431 5425 5419 5412 5405 5399 5392 5386 5380 5374 5367 5363 5358 5351 5346 5339 5337 5329 5325 5316 5309 5307 5299 5295 5298 5300 5296 5298 5299 5307 5321 5306 5308
5469 5461 5459 5453 5448 5442 5439 5434 5430 5424 5417 5409 5402 5397 5391 5384 5377 5371 5362 5357 5353 5348 5342 5336 5330 5323 5316 5307 5303 5296 5286 5282 5276 5276 5274 5271 5270 5272 5270 5272 5274 5283 5281
5455 5453 5449 5441 5436 5431 5426 5420 5415 5407 5399 5394 5389 5382 5376 5370 5364 5355 5346 5342 5336 5331 5326 5319 5313 5306 5296 5289 5282 5274 5264 5259 5256 5252 5249 5245 5242 5236 5237 5232 5231 5240 5262
5447 5442 5436 5431 5424 5419 5412 5405 5398 5392 5386 5381 5373 5365 5360 5354 5349 5343 5337 5329 5323 5313 5305 5302 5294 5285 5277 5271 5267 5257 5247 5238 5231 5227 5224 5217 5215 5202 5203 5207 5197 5192 5199
5438 5432 5427 5417 5410 5405 5398 5392 5386 5379 5372 5366 5360 5354 5346 5342 5334 5327 5323 5318 5305 5297 5288 5281 5273 5267 5258 5254 5251 5242 5233 5224 5217 5208 5199 5192 5179 5175 5164 5159 5156 5154 5166
5427 5420 5413 5406 5400 5393 5387 5381 5373 5367 5361 5354 5348 5342 5339 5330 5320 5312 5309 5301 5293 5278 5269 5261 5255 5248 5240 5238 5234 5227 5220 5211 5203 5193 5180 5168 5158 5145 5130 5125 5121 5111 5117
5418 5411 5403 5396 5389 5382 5376 5370 5363 5355 5350 5343 5338 5330 5320 5315 5304 5299 5294 5284 5270 5261 5252 5244 5236 5229 5223 5218 5212 5207 5200 5193 5189 5181 5169 5156 5140 5127 5110 5094 5085 5081 5077
5407 5401 5394 5386 5380 5373 5365 5358 5352 5346 5338 5331 5323 5315 5310 5299 5289 5282 5274 5262 5253 5247 5238 5229 5220 5212 5208 5200 5192 5182 5176 5175 5166 5153 5147 5137 5126 5111 5096 5083 5070 5059 5063
5400 5393 5383 5375 5369 5361 5352 5347 5341 5331 5322 5315 5309 5300 5289 5280 5271 5263 5253 5243 5237 5228 5221 5213 5206 5201 5191 5180 5169 5161 5155 5146 5134 5126 5119 5112 5106 5100 5088 5072 5064 5057 5050
5390 5378 5369 5364 5358 5351 5343 5334 5323 5316 5309 5301 5291 5279 5269 5261 5252 5244 5236 5228 5219 5212 5206 5200 5193 5182 5171 5161 5150 5140 5129 5116 5106 5099 5092 5086 5076 5071 5067 5064 5059 5054 5053
5374 5366 5360 5352 5345 5337 5328 5319 5311 5302 5292 5284 5273 5262 5252 5244 5237 5229 5221 5214 5206 5200 5195 5184 5175 5164 5153 5142 5130 5118 5105 5092 5080 5071 5066 5060 5054 5050 5047 5041 5044 5046 5050
5364 5357 5350 5341 5331 5323 5316 5308 5299 5289 5278 5264 5256 5248 5237 5228 5221 5215 5209 5202 5194 5188 5180 5166 5154 5141 5132 5122 5111 5097 5084 5072 5061 5051 5043 5039 5035 5030 5027 5023 5020 5024 5025
5355 5347 5338 5329 5320 5311 5301 5291 5284 5275 5266 5257 5248 5239 5228 5219 5210 5201 5193 5184 5176 5166 5153 5135 5127 5115 5105 5095 5084 5075 5063 5052 5041 5032 5024 5018 5014 5011 5009 5007 5002 5003 5009
5345 5337 5327 5318 5307 5296 5286 5276 5263 5257 5248 5239 5230 5222 5213 5203 5194 5186 5177 5169 5152 5141 5120 5110 5099 5088 5078 5066 5056 5047 5039 5029 5020 5013 5007 5001 4994 4990 4987 4988 4987 4988 4994
5332 5325 5316 5305 5293 5282 5271 5261 5250 5238 5226 5217 5211 5203 5195 5187 5176 5167 5159 5147 5131 5113 5097 5086 5075 5064 5055 5044 5033 5024 5017 5010 5003 4996 4989 4982 4975 4970 4969 4967 4968 4969 4975
5320 5310 5299 5290 5280 5269 5257 5245 5233 5221 5211 5202 5192 5185 5176 5166 5157 5147 5135 5117 5106 5094 5080 5066 5054 5043 5033 5023 5013 5005 4997 4991 4984 4977 4971 4965 4957 4952 4951 4951 4953 4955 4960
5307 5298 5287 5276 5265 5252 5240 5228 5218 5207 5195 5185 5176 5168 5157 5147 5137 5123 5110 5096 5081 5069 5058 5045 5035 5024 5014 5005 4996 4987 4980 4972 4967 4960 4955 4949 4943 4938 4939 4940 4942 4946 4951
5294 5282 5271 5258 5247 5236 5224 5212 5201 5189 5179 5170 5162 5151 5144 5135 5116 5103 5093 5079 5063 5050 5038 5026 5016 5007 4998 4987 4977 4969 4963 4957 4951 4945 4941 4936 4931 4930 4929 4929 4932 4937 4944
5280 5268 5255 5244 5233 5221 5210 5198 5186 5176 5165 5155 5146 5134 5123 5108 5096 5083 5071 5057 5044 5031 5019 5010 4999 4989 4979 4970 4961 4954 4948 4943 4939 4935 4932 4927 4923 4921 4921 4923 4925 4931 4938
5265 5253 5241 5229 5218 5207 5195 5182 5171 5160 5150 5139 5127 5115 5102 5088 5076 5062 5050 5038 5026 5014 5003 4992 4982 4973 4964 4955 4946 4939 4935 4932 4928 4924 4923 4921 4918 4917 4917 4919 4921 4927 4933
5249 5238 5227 5215 5204 5191 5180 5169 5158 5147 5135 5122 5108 5096 5083 5070 5056 5042 5031 5021 5009 4997 4985 4975 4965 4957 4950 4942 4936 4929 4925 4923 4920 4918 4915 4916 4917 4917 4915 4916 4919 4925 4931
5235 5222 5212 5201 5190 5178 5167 5155 5143 5130 5116 5102 5089 5076 5064 5050 5037 5025 5013 5001 4991 4979 4969 4960 4951 4944 4937 4931 4926 4923 4919 4917 4914 4913 4913 4913 4914 4915 4915 4916 4920 4926 4933
5220 5210 5199 5187 5176 5163 5150 5138 5124 5110 5097 5083 5070 5057 5044 5032 5020 5008 4996 4984 4973 4965 4955 4946 4938 4932 4927 4923 4920 4917 4916 4914 4913 4916 4917 4919 4922 4923 4920 4919 4922 4926 4931